Terminal Aerodrome Forecast
Issued by NWS Sterling, VA

Current Version | Previous Version | Text Only | Print | Product List | Glossary Off
Versions: 1 2 3 4 5 6 7 8 9 10 11 12 13 14 15 16 17 18 19 20 21 22 23

000
FTUS41 KLWX 032330
TAFIAD
TAF
KIAD 032330Z 0400/0506 VRB03KT P6SM FEW100
     FM041600 22007KT P6SM SCT060
     FM041800 20011KT P6SM SCT060
     FM050000 20006KT P6SM SCT060=

USA.gov is the U.S. government's official web portal to all federal, state and local government web resources and services.